sat.trackr.live / text

‹ back to catalog

KUIPER-00270

NORAD 67791 · 2026-030AD

PAYLOAD ACTIVE UNKNOWN

§ Identity

Operator
Country
US
Launch date
2026-02-12
Launch site
FRGUI
Launch vehicle
Mass (kg)
RCS (m²)

External: N2YO · Heavens-Above · Gunter

§ Orbital elements

Epoch: 2026-09-20T15:29:36.088512Z

Period
97.30 min
Inclination
51.8991°
Eccentricity
0.0000598
Mean motion
14.79929364 rev/d
Perigee alt
629.1 km
Apogee alt
630.0 km
Semi-major
7,007.7 km
B*
3.0803e-4
RAAN
38.5189°
Arg perigee
106.6485°
Mean anomaly
253.4543°
Rev number
3,450

§ Raw data

KUIPER-002701 67791U 26030AD  26263.64555658  .00002128  00000+0  30803-3 0  99932 67791  51.8991  38.5189 0000598 106.6485 253.4543 14.79929364 34503

JSON: /api/v1/satellites/67791 · /tle

For live sub-satellite position, see the globe view (requires WebGL).

§ Visibility from observer

Set your observer location to see the next 7 days of passes ≥ 10°. The values pass through the URL so the page stays shareable.

No JS? Fill the form by hand. The geolocation button needs JavaScript.